Ketchikan, AK

10:46 PM AKDT on September 20, 2018 (GMT -0800)
Ketchikan International

Weather History for PAKT - June, 2018

Change the Weather History Date:

Tuesday, June 12, 2018

  Actual Average Record
Temperature  
Mean Temperature 52 °F -  
Max Temperature 57 °F 61 °F 84 °F (1969)
Min Temperature 46 °F 46 °F 39 °F (1955)
Degree Days  
Heating Degree Days 14    
Growing Degree Days 2 (Base 50)    
Moisture  
Dew Point 45 °F    
Average Humidity 76    
Maximum Humidity 92    
Minimum Humidity 49    
Precipitation  
Precipitation 0.03 in - - ()
Sea Level Pressure  
Sea Level Pressure 29.95 in    
Wind  
Wind Speed 4 mph (SE)    
Max Wind Speed 13 mph    
Max Gust Speed 20 mph    
Visibility 10 miles    
Events Rain    
Averages and records for this station are not official NWS values.
T = Trace of Precipitation, MM = Missing Value Source: NWS Daily Summary

Daily Weather History Graph

Daily Weather History Graph

Search for Another Location

Airport or City:

Astronomy

Jun. 12, 2018 Rise Set
Actual Time 4:05 AM AKDT 9:28 PM AKDT
Civil Twilight 3:06 AM AKDT 10:27 PM AKDT
Nautical Twilight 1:19 AM AKDT 12:14 AM AKDT
Astronomical Twilight Sun does not set Sun does not set
Moon 3:52 AM AKDT (6/12) 8:02 PM AKDT (6/12)
Length of Visible Light 19h 20m
Length of Day
17h 23m
Waning Crescent, 1% of the Moon is Illuminated
Jun 12
Waning Crescent
Jun 13
New
Jun 20
First Quarter
Jun 27
Full
Jul 5
Last Quarter

Hourly Weather History & Observations

Time (AKDT) Temp. Dew Point Humidity Pressure Visibility Wind Dir Wind Speed Gust Speed Precip Events Conditions
12:53 AM 46.9 °F 43.0 °F 86% 30.14 in 10.0 mi SE 4.6 mph - N/A   Scattered Clouds
1:53 AM 48.0 °F 44.1 °F 86% 30.12 in 10.0 mi SE 3.5 mph - N/A   Overcast
2:53 AM 46.9 °F 44.1 °F 90% 30.11 in 10.0 mi Calm Calm - N/A   Mostly Cloudy
3:53 AM 46.9 °F 44.1 °F 90% 30.09 in 10.0 mi Calm Calm - N/A   Overcast
4:53 AM 46.0 °F 43.0 °F 89% 30.06 in 10.0 mi Calm Calm - N/A   Mostly Cloudy
5:53 AM 50.0 °F 45.0 °F 83% 30.03 in 10.0 mi Calm Calm - N/A   Clear
6:53 AM 52.0 °F 45.0 °F 77% 30.01 in 10.0 mi Calm Calm - N/A   Clear
7:53 AM 55.0 °F 42.1 °F 62% 29.99 in 10.0 mi SE 6.9 mph - N/A   Clear
8:53 AM 57.2 °F 39.2 °F 51% 29.98 in 10.0 mi SE 10.4 mph - N/A   Partly Cloudy
9:53 AM 57.2 °F 39.2 °F 51% 29.98 in 10.0 mi SE 12.7 mph - N/A   Partly Cloudy
10:53 AM 57.9 °F 39.0 °F 49% 29.96 in 10.0 mi SE 12.7 mph 19.6 mph N/A   Overcast
11:53 AM 55.0 °F 42.1 °F 62% 29.96 in 10.0 mi North - - 0.00 in Rain Light Rain
12:53 PM 55.4 °F 46.4 °F 72% 29.94 in 10.0 mi SE 4.6 mph - N/A Rain Light Rain
1:53 PM 55.4 °F 44.6 °F 67% 29.92 in 10.0 mi SE 8.1 mph - N/A Rain Light Rain
2:53 PM 55.4 °F 44.6 °F 67% 29.91 in 10.0 mi SSE 6.9 mph - N/A   Overcast
3:53 PM 55.4 °F 44.6 °F 67% 29.88 in 10.0 mi ESE 4.6 mph - N/A   Overcast
4:53 PM 53.6 °F 46.4 °F 77% 29.87 in 10.0 mi ESE 5.8 mph - N/A Rain Light Rain
5:53 PM 53.6 °F 48.2 °F 82% 29.85 in 6.0 mi Calm Calm - N/A Rain Light Rain
6:53 PM 53.6 °F 48.2 °F 82% 29.84 in 9.0 mi East 3.5 mph - N/A Rain Light Rain
7:53 PM 53.1 °F 48.0 °F 83% 29.83 in 10.0 mi ESE 3.5 mph - 0.01 in Rain Light Rain
8:53 PM 53.1 °F 48.9 °F 86% 29.82 in 10.0 mi East 4.6 mph - 0.00 in   Overcast
9:53 PM 52.0 °F 48.9 °F 89% 29.82 in 10.0 mi SE 3.5 mph - 0.01 in Rain Light Rain
10:53 PM 52.0 °F 48.9 °F 89% 29.81 in 10.0 mi SE 4.6 mph - 0.00 in   Overcast
11:53 PM 51.1 °F 48.9 °F 92% 29.81 in 10.0 mi Calm Calm - 0.01 in Rain Light Rain